This demonstration page uses our WeatherBlox Daily Observations layout. Learn more.

41.55636, -103.73856

Hourly Observations for May 25, 2018

Temp ( °F °C ) Dew Point ( °F °C ) Humidity (%) Winds ( mph kmh ) Pressure ( in mb ) Visibility ( mi km ) Precip ( " mm )
12:58 am 00:58 Clear 53 11.9 46 7.7 76 76 W 8 13 29.96 1014 10 16.0934 N/A
1:58 am 01:58 Clear 54 12.2 46 7.9 75 75 W 9 15 29.94 1014 10 16.0934 N/A
2:58 am 02:58 Clear 52 11.1 46 7.9 81 81 W 9 15 29.96 1015 10 16.0934 N/A
3:58 am 03:58 Clear 50 9.8 44 6.9 82 82 W 9 15 29.96 1015 10 16.0934 N/A
4:58 am 04:58 Clear 51 10.7 43 6.3 74 74 W 8 13 29.96 1015 10 16.0934 N/A
5:58 am 05:58 Sunny 53 11.6 43 6.3 70 70 W 7 11 29.96 1015 10 16.0934 N/A
6:58 am 06:58 Sunny 56 13.6 46 7.7 68 68 W 8 13 29.96 1015 10 16.0934 N/A
7:58 am 07:58 Sunny 66 19 48 9 52 52 W 7 11 29.95 1014 10 16.0934 N/A
8:58 am 08:58 Sunny 73 22.6 46 7.5 38 38 WNW 9 15 29.95 1014 10 16.0934 N/A
9:58 am 09:58 Sunny 76 24.2 44 6.5 32 32 NW 13 20 29.93 1014 10 16.0934 N/A
10:58 am 10:58 Sunny 78 25.3 43 6.1 29 29 WNW 8 13 29.93 1014 10 16.0934 N/A
11:58 am 11:58 Sunny 79 25.9 46 7.7 31 31 WSW 9 15 29.93 1013 10 16.0934 N/A
12:58 pm 12:58 Sunny 79 26.3 47 8.2 32 32 Calm 29.92 1013 10 16.0934 N/A
1:58 pm 13:58 Sunny 82 27.5 40 4.5 23 23 Calm 29.91 1013 10 16.0934 N/A
2:58 pm 14:58 Sunny 83 28.3 37 2.6 19 19 N 5 7 29.88 1012 10 16.0934 N/A
3:58 pm 15:58 Sunny 83 28.4 36 2 18 18 NW 5 7 29.88 1012 10 16.0934 N/A
4:58 pm 16:58 Partly Cloudy 83 28.5 38 3.6 20 20 SE 8 13 29.85 1011 10 16.0934 N/A
5:58 pm 17:58 Sunny 81 27.1 44 6.9 28 28 ENE 9 15 29.86 1011 10 16.0934 N/A
6:58 pm 18:58 Sunny 76 24.7 48 8.7 36 36 ENE 10 17 29.85 1011 10 16.0934 N/A
7:58 pm 19:58 Sunny 68 19.9 52 11.1 57 57 ENE 8 13 29.85 1011 10 16.0934 N/A
8:58 pm 20:58 Clear 67 19.3 49 9.5 53 53 E 12 19 29.85 1011 10 16.0934 N/A
9:58 pm 21:58 Clear 66 18.9 48 9.1 53 53 ESE 9 15 29.85 1011 10 16.0934 N/A
10:58 pm 22:58 Clear 64 17.8 48 9 57 57 SSE 7 11 29.85 1011 10 16.0934 N/A
11:58 pm 23:58 Mostly Clear 63 17.3 47 8.5 56 56 SSE 10 17 29.86 1011 10 16.0934 N/A

Powered by AerisWeather